Newcastle, WY

9:15 AM MST on December 05, 2016 (GMT -0700)
Mondell

Weather History for KECS - July, 2013

Change the Weather History Date:

Wednesday, July 10, 2013

  Actual Average (KCUT) Record (KCUT)
Temperature  
Mean Temperature 72 °F 66 °F  
Max Temperature 89 °F 79 °F 96 °F (1954)
Min Temperature 55 °F 52 °F 39 °F (1999)
Degree Days  
Heating Degree Days 0 2  
Month to date heating degree days 24  
Since 1 June heating degree days 244  
Since 1 July heating degree days 24  
Cooling Degree Days 7 2  
Month to date cooling degree days 20  
Year to date cooling degree days 46  
Since 1 June cooling degree days 45  
Growing Degree Days 22 (Base 50)    
Moisture  
Dew Point 51 °F    
Average Humidity 48    
Maximum Humidity 88    
Minimum Humidity 16    
Precipitation  
Precipitation 0.00 in 0.08 in 0.65 in (1948)
Month to date precipitation 0.76  
Year to date precipitation 11.09  
Sea Level Pressure  
Sea Level Pressure 30.14 in    
Wind  
Wind Speed 6 mph (SE)    
Max Wind Speed 17 mph    
Max Gust Speed 23 mph    
Visibility 10 miles    
Events Thunderstorm    
T = Trace of Precipitation, MM = Missing Value Source: NWS Daily Summary

Daily Weather History Graph

Daily Weather History Graph

Search for Another Location

Airport or City:

Trip Planner

Search our weather history database for the weather conditions in past years. The results will help you decide how hot, cold, wet, or windy it might be!

Date:

Astronomy

Jul. 10, 2013 Rise Set
Actual Time 5:24 AM MDT 8:40 PM MDT
Civil Twilight 4:49 AM MDT 9:15 PM MDT
Nautical Twilight 4:03 AM MDT 10:00 PM MDT
Astronomical Twilight 3:07 AM MDT 10:56 PM MDT
Moon 7:54 AM MDT (7/10) 9:43 PM MDT (7/10)
Length of Visible Light 16h 25m
Length of Day
15h 15m
Waxing Crescent, 5% of the Moon is Illuminated
Jul 10
Waxing Crescent
Jul 15
First Quarter
Jul 22
Full
Jul 29
Last Quarter
Aug 6
New

Hourly Weather History & Observations

Time (MDT) Temp. Heat Index Dew Point Humidity Pressure Visibility Wind Dir Wind Speed Gust Speed Precip Events Conditions
12:15 AM 68.0 °F - 51.8 °F 56% 30.24 in 10.0 mi Calm Calm - N/A   Clear
12:35 AM 66.2 °F - 51.8 °F 60% 30.24 in 10.0 mi NNW 5.8 mph - N/A   Clear
12:55 AM 64.4 °F - 51.8 °F 64% 30.24 in 10.0 mi Calm Calm - N/A   Clear
1:15 AM 62.6 °F - 53.6 °F 72% 30.24 in 10.0 mi NW 5.8 mph - N/A   Clear
1:55 AM 60.8 °F - 51.8 °F 72% 30.24 in 10.0 mi North 9.2 mph - N/A   Clear
2:15 AM 60.8 °F - 51.8 °F 72% 30.24 in 10.0 mi North 9.2 mph - N/A   Clear
2:35 AM 60.8 °F - 51.8 °F 72% 30.24 in 10.0 mi North - - N/A   Clear
2:55 AM 60.8 °F - 51.8 °F 72% 30.24 in 10.0 mi North - - N/A   Clear
3:15 AM 59.0 °F - 51.8 °F 77% 30.23 in 10.0 mi North - - N/A   Clear
3:35 AM 59.0 °F - 51.8 °F 77% 30.23 in 10.0 mi Calm Calm - N/A   Clear
3:55 AM 59.0 °F - 51.8 °F 77% 30.23 in 10.0 mi Calm Calm - N/A   Clear
4:15 AM 59.0 °F - 51.8 °F 77% 30.23 in 10.0 mi North - - N/A   Clear
4:35 AM 57.2 °F - 51.8 °F 82% 30.23 in 10.0 mi Calm Calm - N/A   Clear
4:55 AM 55.4 °F - 51.8 °F 88% 30.23 in 10.0 mi East 3.5 mph - N/A   Clear
5:15 AM 57.2 °F - 51.8 °F 82% 30.22 in 10.0 mi East 3.5 mph - N/A   Clear
5:35 AM 59.0 °F - 51.8 °F 77% 30.21 in 10.0 mi Calm Calm - N/A   Clear
5:55 AM 59.0 °F - 51.8 °F 77% 30.21 in 10.0 mi ESE 4.6 mph - N/A   Clear
6:15 AM 62.6 °F - 53.6 °F 72% 30.21 in 10.0 mi ESE 8.1 mph - N/A   Clear
6:35 AM 66.2 °F - 53.6 °F 64% 30.20 in 10.0 mi East 12.7 mph - N/A   Clear
6:55 AM 68.0 °F - 53.6 °F 60% 30.20 in 10.0 mi North - - N/A   Clear
7:15 AM 69.8 °F - 53.6 °F 56% 30.19 in 10.0 mi North - - N/A   Clear
7:35 AM 69.8 °F - 55.4 °F 60% 30.20 in 10.0 mi North - - N/A Thunderstorm Thunderstorm
7:55 AM 68.0 °F - 55.4 °F 64% 30.21 in 10.0 mi North - - N/A   Mostly Cloudy
8:15 AM 69.8 °F - 55.4 °F 60% 30.21 in 10.0 mi North - - N/A Thunderstorm Mostly Cloudy
8:35 AM 71.6 °F - 55.4 °F 57% 30.19 in 10.0 mi North - - N/A   Clear
8:55 AM 71.6 °F - 55.4 °F 57% 30.20 in 10.0 mi North - - N/A   Clear
9:15 AM 71.6 °F - 57.2 °F 60% 30.20 in 10.0 mi SE 11.5 mph - N/A   Clear
9:35 AM 73.4 °F - 57.2 °F 57% 30.19 in 10.0 mi SE 15.0 mph - N/A   Clear
9:55 AM 73.4 °F - 59.0 °F 61% 30.19 in 10.0 mi North - - N/A   Clear
10:15 AM 73.4 °F - 59.0 °F 61% 30.18 in 10.0 mi SSE 17.3 mph 23.0 mph N/A   Clear
10:35 AM 75.2 °F - 59.0 °F 57% 30.18 in 10.0 mi SE 17.3 mph - N/A   Clear
10:55 AM 77.0 °F - 59.0 °F 54% 30.17 in 10.0 mi SE 16.1 mph - N/A   Clear
11:15 AM 78.8 °F - 57.2 °F 47% 30.17 in 10.0 mi SSE 15.0 mph 18.4 mph N/A   Clear
11:35 AM 78.8 °F - 55.4 °F 44% 30.17 in 10.0 mi North - - N/A   Clear
11:55 AM 78.8 °F - 55.4 °F 44% 30.16 in 10.0 mi SE 11.5 mph - N/A   Clear
12:15 PM 80.6 °F 80.8 °F 57.2 °F 45% 30.15 in 10.0 mi SE 15.0 mph 18.4 mph N/A   Clear
12:35 PM 80.6 °F 80.5 °F 55.4 °F 42% 30.15 in 10.0 mi SE 13.8 mph 19.6 mph N/A   Clear
12:55 PM 82.4 °F 81.7 °F 55.4 °F 39% 30.13 in 10.0 mi SE 12.7 mph - N/A   Clear
1:15 PM 82.4 °F 81.7 °F 55.4 °F 39% 30.13 in 10.0 mi ESE 10.4 mph - N/A   Clear
1:35 PM 84.2 °F 83.0 °F 55.4 °F 37% 30.12 in 10.0 mi South 9.2 mph - N/A   Clear
1:55 PM 84.2 °F 83.0 °F 55.4 °F 37% 30.11 in 10.0 mi SE 12.7 mph - N/A   Clear
2:15 PM 86.0 °F 84.2 °F 53.6 °F 33% 30.11 in 10.0 mi North - - N/A   Clear
2:35 PM 86.0 °F 84.2 °F 53.6 °F 33% 30.10 in 10.0 mi SSE 8.1 mph 12.7 mph N/A   Clear
2:55 PM 87.8 °F - 51.8 °F 29% 30.09 in 10.0 mi SE 10.4 mph - N/A   Clear
3:15 PM 87.8 °F - 50.0 °F 27% 30.08 in 10.0 mi SSE 4.6 mph 16.1 mph N/A   Clear
3:35 PM 87.8 °F - 51.8 °F 29% 30.07 in 10.0 mi South 6.9 mph 19.6 mph N/A   Clear
3:55 PM 89.6 °F - 46.4 °F 22% 30.07 in 10.0 mi SE 8.1 mph 16.1 mph N/A   Clear
4:15 PM 89.6 °F - 44.6 °F 21% 30.06 in 10.0 mi SSE 6.9 mph - N/A   Clear
4:35 PM 89.6 °F - 44.6 °F 21% 30.05 in 10.0 mi SE 6.9 mph - N/A   Clear
4:55 PM 89.6 °F - 44.6 °F 21% 30.04 in 10.0 mi SE 5.8 mph - N/A   Clear
5:15 PM 89.6 °F - 37.4 °F 16% 30.04 in 10.0 mi SSE 4.6 mph - N/A   Clear
5:35 PM 89.6 °F - 39.2 °F 17% 30.03 in 10.0 mi SE 3.5 mph - N/A   Clear
5:55 PM 89.6 °F - 39.2 °F 17% 30.03 in 10.0 mi Calm Calm - N/A   Clear
6:15 PM 89.6 °F - 41.0 °F 18% 30.03 in 10.0 mi Calm Calm - N/A   Clear
6:35 PM 89.6 °F - 39.2 °F 17% 30.02 in 10.0 mi Calm Calm - N/A   Clear
6:55 PM 89.6 °F - 41.0 °F 18% 30.02 in 10.0 mi Calm Calm - N/A   Clear
7:15 PM 87.8 °F - 41.0 °F 19% 30.02 in 10.0 mi South 3.5 mph - N/A   Clear
7:35 PM 86.0 °F - 46.4 °F 25% 30.02 in 10.0 mi ESE 5.8 mph - N/A   Clear
7:55 PM 82.4 °F - 51.8 °F 35% 30.02 in 10.0 mi ESE 4.6 mph - N/A   Clear
8:15 PM 80.6 °F - 48.2 °F 32% 30.02 in 10.0 mi East 4.6 mph - N/A   Clear
8:35 PM 80.6 °F - 46.4 °F 30% 30.02 in 10.0 mi NE 4.6 mph - N/A   Clear
8:55 PM 78.8 °F - 44.6 °F 30% 30.03 in 10.0 mi North - - N/A   Clear
9:15 PM 78.8 °F - 44.6 °F 30% 30.04 in 10.0 mi Calm Calm - N/A   Clear
9:35 PM 77.0 °F - 46.4 °F 34% 30.05 in 10.0 mi ENE 8.1 mph - N/A   Clear
9:55 PM 77.0 °F - 48.2 °F 36% 30.06 in 10.0 mi East 10.4 mph - N/A   Clear
10:15 PM 78.8 °F - 50.0 °F 36% 30.07 in 10.0 mi North - - N/A   Clear
10:35 PM 77.0 °F - 51.8 °F 41% 30.08 in 10.0 mi North - - N/A   Clear
10:55 PM 77.0 °F - 51.8 °F 41% 30.08 in 10.0 mi North - - N/A   Clear
11:15 PM 75.2 °F - 51.8 °F 44% 30.08 in 10.0 mi North - - N/A   Clear
11:35 PM 75.2 °F - 51.8 °F 44% 30.08 in 10.0 mi North - - N/A   Clear
11:55 PM 73.4 °F - 53.6 °F 50% 30.08 in 10.0 mi North - - N/A   Clear